Wind_Speed
27 28 28 28 28 29 30 30 29 29 28 28 28 28 28 29 29 29 29 27 26 24 23 23 22 21 20 21 23 24 25 25 24 23 23 23 23 23 25 26 27 27 28 28 28 27 25 23 20 18 17 16 16 17 17 17 17 17 17 17 18 18 18 18 19 21 22 22 22 22 22 22 21 21 20 19 18 17 17 17 18 18 17 15 14 13
29 29 29 29 29 30 30 30 29 29 29 28 28 28 29 29 29 29 28 27 25 24 23 24 23 23 21 21 22 23 25 25 25 25 24 24 25 25 26 26 27 27 27 27 26 25 24 22 20 18 17 17 17 17 17 18 18 18 18 18 18 18 18 19 20 22 24 25 25 25 24 23 22 21 20 19 19 19 19 19 19 18 16 14 12 10
30 30 29 29 30 30 31 30 29 29 29 28 28 28 29 29 29 29 28 27 26 25 24 24 24 23 22 21 21 21 23 24 25 25 25 26 27 28 28 27 26 26 25 25 25 23 22 21 19 18 17 17 18 18 18 19 19 19 19 20 20 20 20 21 22 24 25 26 26 26 25 24 23 23 23 23 22 22 22 21 20 18 15 12 11 9
31 31 30 30 31 31 31 30 30 29 28 28 27 28 29 29 30 29 28 27 26 26 25 25 24 22 21 20 20 21 21 22 23 24 25 26 28 28 28 26 25 24 24 24 24 23 21 20 19 18 17 17 18 18 19 19 19 19 20 21 22 23 23 24 25 26 26 26 25 24 23 23 22 23 23 23 24 23 23 22 20 17 14 12 11 10
32 32 31 31 32 32 31 31 30 30 29 28 28 29 29 30 30 29 28 27 27 26 25 24 23 22 21 20 20 21 22 22 23 24 25 26 27 27 26 24 24 24 24 24 23 22 20 19 18 17 17 17 17 18 19 19 19 19 19 21 22 23 24 25 26 26 26 25 24 23 22 21 21 21 22 22 22 22 22 20 18 16 13 12 11 11
33 33 32 32 33 33 32 32 31 31 30 29 29 29 30 30 30 29 28 27 25 24 23 22 22 21 21 21 21 22 23 24 25 25 26 26 26 26 24 23 23 24 24 24 23 21 20 18 17 17 16 17 17 18 18 18 18 18 19 20 21 22 24 25 26 26 26 25 24 23 22 21 20 20 20 21 21 20 20 18 16 14 13 12 12 12
34 34 34 34 34 34 34 34 33 32 31 30 30 30 30 29 29 28 26 25 23 22 22 22 22 21 21 21 22 24 26 27 28 28 28 28 28 27 25 24 24 25 25 24 23 21 19 18 17 16 16 16 17 17 18 18 18 18 19 19 20 21 23 24 25 25 25 24 23 23 22 21 20 20 20 20 20 19 18 17 15 14 13 13 13 13
34 35 35 35 35 36 36 35 35 34 33 31 30 30 29 28 27 26 24 23 22 22 22 22 22 22 21 21 23 25 27 29 30 31 31 30 30 29 27 26 26 26 26 24 23 21 19 18 17 16 16 16 17 18 18 18 18 18 19 19 20 20 22 23 24 24 24 24 24 23 22 22 21 21 20 19 19 18 17 16 15 15 14 14 14 14
34 35 36 36 37 37 37 36 36 35 33 32 30 29 28 27 26 24 23 22 22 22 23 23 22 22 22 22 24 26 28 30 31 31 31 31 31 30 29 28 27 27 26 24 22 21 19 18 17 16 16 17 17 18 18 18 18 18 19 19 19 20 22 23 24 24 24 24 24 23 23 22 21 20 19 19 18 17 17 16 16 16 16 15 15 14
34 35 36 37 37 37 37 36 36 35 33 32 30 29 27 26 25 24 23 22 22 22 23 23 22 22 22 24 25 27 28 29 30 30 31 31 30 30 29 29 28 27 26 24 22 21 19 18 17 17 17 17 17 17 17 17 18 18 18 19 19 20 21 22 23 24 24 24 23 22 21 20 20 19 19 18 18 18 18 18 17 17 17 16 16 15
35 35 35 36 37 37 36 36 36 35 33 32 31 29 28 27 26 25 24 24 23 23 23 23 22 22 24 25 27 28 29 29 30 30 30 30 30 30 29 29 28 27 26 24 23 21 20 18 17 17 17 17 17 17 17 17 17 18 18 19 19 20 21 21 22 22 22 22 21 20 20 19 19 19 19 19 19 19 19 19 19 18 18 17 17 16
35 35 35 35 36 36 36 36 35 35 33 32 31 31 30 29 27 26 25 25 24 24 24 23 23 23 25 27 28 28 29 29 29 30 30 30 30 30 29 29 28 27 26 25 23 22 20 19 18 17 17 17 16 16 16 16 17 18 18 19 19 20 20 20 20 20 20 20 20 20 19 20 20 20 20 20 20 20 20 19 19 19 18 17 17 16
35 35 34 35 35 35 35 35 35 34 34 34 34 33 33 31 28 26 26 25 25 25 24 24 24 25 26 27 28 29 29 29 29 30 30 30 30 30 30 29 28 27 26 25 23 22 20 19 18 17 17 16 15 15 16 16 17 18 19 19 19 19 19 19 19 19 19 19 20 20 20 21 21 21 21 21 20 20 20 19 19 18 18 17 17 17
35 34 34 34 34 35 35 35 35 35 36 36 35 34 33 30 28 26 26 26 26 25 25 25 25 26 27 28 29 29 30 30 30 30 31 31 31 31 30 30 29 28 27 25 23 22 20 19 18 17 16 15 15 15 16 17 18 18 19 19 19 19 19 19 19 19 20 20 21 21 21 22 22 21 21 20 20 19 19 19 18 18 17 17 17 17
35 34 34 34 35 35 36 35 35 36 36 35 34 33 32 30 28 27 27 27 27 26 26 26 26 27 29 30 30 30 31 31 32 32 33 33 33 32 31 31 30 28 27 25 24 22 20 19 17 16 15 15 15 15 16 17 18 18 19 19 19 19 19 19 20 20 20 21 21 22 22 21 21 21 20 19 18 17 17 17 17 16 16 16 17 17
35 34 34 35 35 36 36 36 35 35 35 34 33 33 32 32 30 29 28 28 28 28 28 27 28 30 31 32 32 33 33 33 33 34 34 34 34 33 33 31 30 29 27 25 24 22 20 19 17 16 15 15 15 16 16 17 18 18 19 19 19 19 19 20 20 20 21 21 21 21 20 20 19 19 17 16 16 16 16 16 16 15 16 16 16 16
35 35 35 35 35 35 36 35 35 34 33 33 33 33 33 33 32 31 30 30 30 30 30 30 31 33 35 35 35 35 35 34 34 34 35 35 34 34 33 31 30 29 27 25 24 22 21 19 17 16 15 15 16 16 17 17 18 18 19 19 19 19 19 20 20 20 20 20 20 19 18 18 17 16 15 14 14 14 14 14 14 15 15 16 16 16
35 36 36 36 35 35 35 35 34 33 33 33 33 33 33 33 32 32 31 31 32 32 32 32 33 35 37 38 37 37 36 35 35 35 35 36 35 33 32 31 29 28 27 25 24 23 21 20 18 16 16 16 16 17 17 18 18 19 19 19 19 19 19 19 19 19 19 18 17 17 16 16 15 14 13 13 13 13 13 13 14 14 15 15 15 15
36 37 37 36 36 35 34 35 35 34 34 33 33 33 33 33 33 33 33 33 33 34 34 34 34 35 37 38 38 37 36 35 35 35 36 36 35 33 32 30 29 28 27 26 25 23 22 21 19 18 17 17 17 18 18 18 19 19 19 19 19 19 19 18 18 17 17 16 15 15 14 14 14 13 12 12 12 12 12 12 13 13 14 14 14 14
37 37 37 36 35 34 34 35 36 35 34 33 32 32 33 33 33 34 34 34 35 35 35 35 35 35 36 37 37 36 35 35 35 35 36 36 35 34 33 31 30 29 28 27 26 24 23 22 20 19 19 18 18 18 18 19 19 19 19 19 18 18 18 17 16 16 15 14 14 13 13 13 13 12 12 11 11 12 12 12 12 13 13 13 13 14
38 38 38 37 35 34 35 36 36 35 33 32 31 31 32 32 33 34 34 34 35 35 35 35 35 35 35 36 36 36 35 35 35 35 35 36 36 35 34 32 31 29 29 28 27 26 24 23 22 21 20 19 19 19 19 19 19 19 19 18 18 17 17 16 15 14 13 13 13 12 12 13 13 12 12 11 11 11 11 12 12 12 12 13 13 14
39 40 39 37 36 35 35 35 35 34 33 31 31 31 31 32 32 33 33 33 34 34 35 35 35 35 34 34 34 35 35 35 35 35 35 36 36 36 35 33 32 31 30 29 28 27 25 24 23 22 21 20 19 19 19 19 19 19 18 18 17 17 16 15 14 13 12 12 12 12 12 12 12 12 12 12 11 11 11 12 12 12 12 13 13 14
40 40 39 38 37 36 35 34 33 33 32 31 31 30 30 29 29 29 30 30 31 32 33 34 33 33 33 33 33 34 35 35 35 34 35 36 37 36 35 34 33 31 31 30 29 28 26 25 24 23 22 21 20 19 19 19 19 18 18 17 17 16 15 14 13 12 12 12 12 12 12 12 12 12 12 12 12 11 11 12 12 12 13 13 13 14
41 40 39 38 37 36 35 33 33 32 32 31 30 28 27 26 25 25 25 27 28 30 31 32 32 33 33 34 34 34 35 36 36 36 37 37 37 37 36 35 34 33 32 31 30 28 27 26 24 23 22 21 20 20 19 19 19 18 17 17 16 15 14 13 12 12 12 11 12 12 12 12 12 12 12 12 12 12 12 12 12 13 13 13 13 14
41 41 40 39 37 36 34 33 32 31 31 30 28 27 25 23 23 23 24 26 28 29 31 32 33 34 35 35 35 36 36 36 37 38 38 38 38 37 36 35 34 33 33 31 30 29 27 26 25 24 23 22 21 20 19 19 18 18 17 16 15 15 14 13 12 12 12 12 12 12 12 12 12 12 12 12 12 12 12 12 13 13 13 13 13 13
40 41 40 39 38 36 34 32 31 31 30 29 28 26 25 24 24 25 26 28 30 31 32 33 34 35 36 36 36 37 36 36 37 38 38 39 38 38 37 36 35 33 33 31 30 29 28 27 26 25 24 22 21 20 20 19 18 17 16 16 15 15 14 13 12 12 12 12 12 12 12 12 12 12 12 12 12 12 12 12 13 13 13 13 13 13
40 41 41 40 38 36 34 32 31 31 30 30 28 27 26 25 26 27 30 31 31 32 32 33 35 36 36 37 37 37 36 35 36 37 37 38 38 38 37 36 35 34 33 32 31 30 29 28 27 26 24 23 22 21 20 19 18 17 16 16 15 14 14 13 12 12 12 12 12 12 12 12 12 12 12 12 12 12 12 13 13 13 13 13 12 12
38 40 41 41 39 37 34 33 33 32 32 31 30 29 28 28 28 30 32 32 32 32 32 33 35 36 37 37 37 36 35 35 35 36 36 36 37 38 37 36 35 34 33 32 31 30 29 29 28 27 25 24 23 22 21 20 19 17 16 16 15 14 14 13 13 12 12 12 12 12 12 12 12 13 13 12 12 13 13 13 13 13 12 12 12 12
36 38 39 40 38 36 35 35 35 35 34 32 31 30 31 30 31 31 32 32 31 32 33 33 34 35 35 35 35 35 35 35 35 35 34 35 36 37 36 35 35 34 33 32 31 31 30 30 29 28 26 25 24 23 22 20 19 18 17 16 15 15 14 14 13 13 13 13 12 12 12 13 13 13 13 13 13 13 13 13 13 12 12 12 11 11
34 36 37 37 36 35 35 36 37 36 35 33 32 32 32 32 32 31 31 31 31 32 33 33 34 34 34 34 34 35 36 36 36 35 34 34 36 37 36 35 35 34 33 33 32 32 31 31 30 29 27 26 25 24 22 21 20 18 17 16 16 15 15 14 14 13 13 13 13 13 13 13 14 14 13 13 13 13 13 13 13 12 12 11 11 11
34 35 35 34 34 34 35 35 36 35 34 33 32 32 33 33 32 32 31 31 31 31 32 32 33 34 34 34 35 37 38 37 36 35 34 34 36 36 36 35 35 34 33 32 33 33 33 32 30 29 28 27 26 24 23 22 20 19 18 17 16 16 15 15 14 13 13 13 13 13 14 14 14 14 14 14 13 13 13 13 13 12 12 11 11 11
34 34 33 33 33 34 34 34 33 33 33 32 32 33 33 33 32 32 32 32 31 30 30 31 32 33 33 33 35 36 37 36 36 35 34 35 36 36 35 35 34 33 32 31 31 32 32 32 31 29 28 27 26 25 23 22 21 19 18 17 17 16 16 15 14 14 14 14 14 14 15 15 15 15 14 14 14 13 13 13 13 12 12 11 11 11
33 33 33 33 33 34 33 32 31 31 32 32 33 33 33 33 33 33 32 32 30 29 29 30 31 31 32 32 32 33 34 34 34 34 34 35 36 36 35 34 33 32 31 30 30 30 29 30 29 28 28 27 26 25 24 22 21 20 19 18 18 17 16 16 15 14 14 15 15 15 15 15 15 15 14 14 14 14 13 13 13 12 12 12 11 11
33 34 34 35 35 34 33 31 30 31 32 33 33 34 33 33 32 32 32 32 31 30 30 29 30 30 30 30 31 31 32 32 32 32 33 34 35 35 34 33 32 31 30 30 29 29 29 28 27 27 26 26 25 24 24 23 22 21 20 19 18 17 17 16 15 15 15 15 16 16 16 16 16 15 15 14 14 14 14 13 13 12 12 12 11 11
34 35 36 36 36 35 33 31 30 31 32 33 34 34 34 33 33 33 32 32 32 31 30 30 29 29 28 28 29 30 30 29 29 30 32 33 34 34 33 32 31 30 29 29 29 29 29 27 26 25 25 25 25 24 24 23 22 21 20 19 19 18 17 16 15 15 15 16 16 16 16 16 16 16 15 15 15 14 14 13 13 13 12 12 12 11
36 37 38 38 37 36 34 33 32 32 33 34 35 35 35 34 34 34 33 33 32 31 30 30 29 28 27 26 26 26 26 25 26 28 30 31 32 32 32 31 30 29 29 29 29 29 28 27 26 24 24 24 24 25 25 24 23 22 21 20 19 19 18 17 16 15 15 16 16 16 16 16 16 16 15 15 15 14 14 13 13 13 12 12 12 11
37 38 39 39 38 37 35 34 34 34 34 35 35 36 35 35 35 35 34 33 32 31 30 29 28 27 26 25 24 23 22 22 23 24 26 28 29 30 30 29 28 28 28 28 28 28 27 27 26 25 24 24 24 25 25 24 23 23 22 21 20 19 18 17 16 16 16 16 16 16 16 16 16 16 16 15 15 14 14 14 13 13 12 12 12 11
38 39 39 39 39 37 36 35 35 35 36 36 36 36 36 36 35 35 34 33 32 31 29 28 27 27 26 24 23 22 21 20 20 21 23 24 26 27 28 28 27 27 26 26 26 26 26 26 26 26 25 24 24 24 24 24 24 23 22 21 20 20 19 18 17 17 17 16 16 17 17 17 16 16 16 15 15 14 14 13 13 13 13 12 12 12
39 39 39 39 38 37 36 36 36 37 37 36 36 36 35 35 35 34 33 32 31 30 28 28 27 26 25 24 23 22 21 20 19 20 20 22 24 25 26 27 26 26 25 24 24 24 24 25 25 24 24 23 23 23 23 23 23 23 22 22 21 20 20 19 18 18 18 17 17 17 17 17 17 16 16 15 14 14 14 14 13 13 13 12 12 12
39 39 39 38 37 36 36 36 37 37 37 36 36 35 34 34 33 33 32 31 30 29 28 27 26 25 24 24 23 22 21 20 20 20 20 21 22 24 25 25 25 24 24 23 23 23 23 22 22 21 21 21 21 22 23 23 23 22 22 22 22 21 21 20 19 19 18 18 18 18 17 17 17 16 16 15 15 14 14 14 14 13 13 13 12 12
38 38 38 37 36 35 35 36 37 38 37 36 35 34 33 33 32 32 31 30 29 28 27 26 25 24 24 23 22 22 21 21 21 21 21 21 22 23 23 24 23 23 22 22 22 22 22 21 21 20 19 19 20 21 22 22 22 22 22 22 21 21 20 20 20 19 19 18 18 18 18 17 17 16 16 15 15 15 15 15 14 14 13 12 12 12
38 37 37 36 35 34 35 36 37 37 37 36 34 33 33 32 31 31 30 30 29 28 27 26 25 24 24 23 23 22 22 21 21 21 21 21 22 22 22 23 22 22 22 22 22 22 22 21 20 19 18 18 19 20 21 21 21 21 21 21 20 19 20 20 20 19 19 19 18 18 18 17 17 17 16 16 16 16 16 15 14 14 13 12 12 12
37 37 36 35 34 34 35 36 37 37 36 35 34 33 32 31 30 30 30 29 29 28 27 26 25 25 24 24 24 23 22 22 21 21 21 21 21 22 22 22 22 22 22 22 22 22 22 21 20 19 18 18 18 19 20 21 21 21 21 20 20 20 20 20 20 20 19 19 18 18 18 17 17 17 17 17 17 16 16 15 14 13 13 13 13 13
37 36 35 34 33 33 34 36 36 36 36 35 34 32 31 30 29 29 29 29 28 28 27 27 26 25 25 25 25 24 23 23 22 21 21 21 22 22 22 22 22 22 23 23 23 23 22 21 20 19 19 19 19 19 19 20 21 21 21 21 20 20 19 19 19 19 19 19 18 18 18 17 17 17 17 17 17 16 16 15 14 14 13 13 13 13
37 36 35 34 33 33 34 35 36 36 35 34 33 31 30 29 29 28 28 28 28 28 27 27 27 27 26 26 26 25 25 24 23 22 22 22 22 23 23 23 23 23 24 24 24 23 22 21 21 21 21 21 20 20 19 20 20 20 21 21 20 19 18 17 17 18 18 18 18 18 18 18 18 18 18 17 17 17 16 15 15 14 14 13 13 13
37 36 35 33 32 32 33 34 35 35 34 33 32 31 30 29 28 28 28 28 27 27 27 27 27 28 28 28 27 27 26 25 24 24 23 23 23 23 24 24 24 24 24 24 23 22 21 20 20 21 21 22 22 21 21 20 20 20 20 21 21 20 19 18 18 18 18 18 18 18 18 18 18 18 18 17 17 17 16 16 15 15 14 14 13 13
38 37 35 34 32 31 32 33 33 33 33 32 31 30 29 28 28 28 28 27 27 27 27 28 28 28 28 28 28 28 27 26 26 25 25 24 24 24 25 25 25 25 25 24 23 22 20 19 19 19 21 22 22 22 22 21 20 20 20 20 20 20 20 19 19 19 19 19 18 18 18 18 18 18 17 17 17 17 17 16 15 15 14 14 14 13
39 37 36 34 32 31 31 32 32 33 32 31 30 29 29 28 28 28 28 28 28 28 28 28 29 29 28 28 28 28 27 27 26 26 26 26 26 26 26 26 26 26 26 25 24 23 21 21 20 20 20 20 21 21 21 21 20 20 20 20 20 20 20 19 19 19 19 19 19 19 18 18 18 17 17 17 17 17 16 16 15 15 14 14 14 13
39 37 35 33 31 30 30 31 32 32 31 30 30 29 29 29 29 29 29 29 28 29 29 30 30 29 29 28 28 27 27 26 26 26 26 26 26 27 27 27 27 26 26 25 24 23 22 22 21 21 20 19 19 18 19 20 20 20 20 20 20 20 19 19 19 18 19 19 19 18 18 18 18 17 17 17 17 16 16 16 15 15 14 14 14 13
38 37 35 33 30 29 30 31 31 32 31 30 30 29 29 30 30 29 29 29 29 29 30 30 30 29 29 29 28 28 27 27 27 26 26 26 27 27 27 27 27 27 26 25 24 23 22 21 21 21 21 21 20 19 18 19 19 20 20 20 20 20 20 19 19 19 19 19 18 18 18 18 18 18 18 17 16 16 15 15 15 14 14 14 14 13
38 36 34 31 29 28 29 30 31 31 31 30 30 30 30 30 30 30 30 30 30 29 29 29 29 29 28 28 28 28 28 27 27 27 27 27 27 27 27 27 27 27 27 26 25 24 23 22 21 21 20 21 21 20 20 19 20 20 21 21 20 20 20 20 20 19 19 18 18 18 18 18 18 18 17 17 16 15 15 14 14 14 14 14 13 13
Wind_Direction
268 268 266 262 259 259 261 263 265 266 267 267 268 268 268 268 267 267 267 267 266 263 260 261 263 264 261 252 244 239 236 235 235 236 237 238 239 239 240 242 243 245 247 249 251 254 255 252 249 247 248 250 250 250 249 247 245 241 235 229 227 228 230 235 239 241 242 241 240 239 239 238 237 236 236 237 240 244 249 255 260 268 277 284 288 287
260 260 259 258 259 260 263 266 268 269 269 268 268 267 266 266 266 266 266 266 265 264 262 263 264 266 265 259 251 243 239 236 235 235 236 237 238 239 240 242 243 245 247 249 251 252 252 249 247 246 247 248 248 247 245 244 243 240 234 229 227 227 227 227 229 232 235 237 239 240 241 242 244 246 248 251 255 258 262 266 270 276 282 283 281 275
256 256 256 257 259 261 264 268 270 271 271 269 267 266 266 265 265 266 266 266 265 264 263 264 265 266 264 259 252 246 241 238 236 236 236 237 238 240 241 243 244 246 247 249 250 251 249 247 246 247 248 248 248 246 244 242 242 240 234 228 225 224 222 220 220 224 229 234 237 239 242 245 249 253 256 259 262 265 268 271 274 277 278 275 267 256
259 259 260 261 262 263 266 268 270 271 270 268 266 264 264 263 264 265 265 265 265 264 263 263 263 263 260 255 250 246 243 241 239 238 237 238 239 240 242 243 244 245 247 248 249 249 247 247 247 248 248 248 247 246 244 242 241 240 237 233 230 228 227 224 225 228 232 236 240 244 248 252 254 255 256 258 260 263 265 268 271 272 270 263 254 243
263 264 265 265 265 266 268 269 270 270 269 267 264 262 261 261 262 264 265 265 264 264 262 261 260 259 255 249 245 243 242 241 240 240 240 240 241 242 243 243 244 245 247 248 249 248 247 247 248 249 249 248 247 246 244 242 241 240 239 237 235 233 232 232 233 236 240 244 248 251 254 255 254 253 252 253 255 258 261 264 266 265 260 253 245 238
265 266 267 267 267 268 269 270 270 270 269 267 264 261 260 260 261 263 263 264 263 262 260 259 258 256 252 245 240 237 237 237 239 240 241 242 243 244 244 244 244 245 247 249 249 249 248 249 250 250 249 248 247 246 244 242 241 239 239 239 238 237 235 236 238 241 245 248 251 252 252 251 249 248 249 251 253 256 259 261 260 257 252 246 241 236
265 266 267 267 268 269 270 271 272 271 270 267 265 263 261 260 260 261 262 262 261 259 258 257 256 254 249 242 235 232 232 233 235 236 238 240 242 244 244 244 244 245 248 250 250 250 250 251 251 250 249 247 246 244 243 242 240 239 238 239 238 237 236 236 238 241 244 246 247 247 247 247 247 248 249 251 253 255 256 257 255 252 248 243 240 236
264 265 266 266 267 269 270 271 272 272 271 268 265 263 261 260 259 259 259 258 257 256 256 256 254 251 246 239 232 229 228 230 231 233 235 237 239 241 242 242 243 245 248 250 251 251 251 252 252 250 248 246 245 243 241 240 239 239 238 238 236 235 234 234 235 237 239 241 243 244 245 247 248 250 250 251 252 253 253 253 252 249 246 243 239 236
262 263 264 265 266 267 269 270 271 271 270 268 265 262 260 259 258 257 255 254 253 254 255 255 252 247 241 235 230 227 227 228 229 231 233 235 236 238 240 241 242 244 247 249 250 251 251 252 251 249 247 245 244 242 241 240 239 239 238 237 235 233 232 232 234 235 237 240 242 244 246 247 249 249 250 250 251 252 252 252 251 249 247 243 240 237
263 262 263 265 266 267 267 267 269 269 268 266 264 261 259 257 256 254 253 251 251 251 253 253 249 242 236 232 229 226 226 227 229 231 233 234 236 238 239 241 242 245 247 248 249 249 250 251 250 248 245 244 243 242 241 240 239 239 239 237 236 234 233 233 234 235 237 239 241 243 245 247 248 249 251 252 253 253 253 252 251 249 247 244 241 239
264 263 263 263 264 265 265 265 266 266 266 264 262 259 256 253 251 251 251 250 250 250 250 250 245 238 231 228 227 226 225 226 227 229 232 234 236 238 240 241 243 245 246 246 247 247 249 249 248 246 245 244 243 242 241 239 239 238 238 237 237 236 235 235 235 236 238 239 242 244 246 248 250 252 254 255 255 255 254 253 251 249 247 245 242 240
265 264 263 262 263 263 262 262 263 263 262 260 257 255 252 250 248 247 247 248 249 249 248 246 242 236 230 227 226 226 225 226 227 228 230 232 234 236 238 240 241 243 243 244 244 245 246 247 247 246 245 245 244 242 240 238 237 237 238 238 238 237 237 237 237 238 239 242 244 247 250 253 255 256 257 257 257 256 254 252 250 247 245 243 241 240
265 264 263 263 262 261 260 258 257 257 256 254 253 251 250 249 247 245 245 245 247 248 248 244 239 234 231 229 227 226 225 225 226 227 229 230 232 233 235 237 238 239 240 241 241 243 244 245 245 245 245 246 244 242 239 237 237 237 238 238 239 238 238 238 239 240 243 246 249 252 255 257 258 259 259 258 257 255 253 249 246 243 241 239 239 238
264 264 263 262 261 260 258 256 253 251 252 252 252 251 251 250 248 246 245 245 246 246 246 242 237 232 230 229 228 226 225 225 226 227 229 230 231 232 234 235 236 237 238 239 240 242 244 245 245 245 245 246 244 242 239 238 238 238 239 239 239 240 240 240 242 244 247 250 253 256 258 259 259 259 258 257 255 252 248 245 241 237 235 234 234 235
263 262 259 258 258 258 257 255 253 252 252 253 252 251 251 249 248 246 245 244 244 244 243 240 235 230 227 227 227 226 225 225 226 227 228 230 231 232 233 235 236 236 237 239 241 243 245 245 245 244 245 245 244 242 240 239 239 239 240 240 240 241 241 243 245 248 251 253 256 258 259 259 259 258 256 253 250 246 242 238 234 231 229 229 230 230
261 260 257 257 257 257 257 256 254 253 253 252 251 249 247 246 245 243 242 243 243 242 238 233 228 225 224 226 227 226 226 226 227 228 229 229 231 233 234 234 235 237 238 240 242 244 246 246 245 244 244 244 243 242 241 240 240 240 240 240 241 242 244 246 248 251 254 256 257 258 258 258 256 254 251 247 242 238 234 230 226 224 224 225 226 226
259 258 257 256 255 255 256 257 256 254 252 251 250 248 247 246 245 243 242 241 242 241 237 231 223 219 219 221 223 225 226 226 227 229 230 230 231 233 234 234 235 238 239 241 243 245 246 247 246 244 243 243 242 241 241 240 240 241 241 241 242 244 246 248 251 253 255 256 257 256 255 254 252 249 244 239 234 230 226 223 220 219 219 221 223 223
256 255 255 254 253 253 254 255 255 253 251 249 248 248 247 246 245 244 242 242 242 241 238 233 227 221 219 217 219 223 226 225 227 229 231 230 231 233 235 235 236 238 240 242 243 245 246 247 246 245 243 242 241 241 240 240 240 241 242 243 244 246 248 250 253 254 255 255 254 252 250 248 245 241 236 231 226 222 219 217 215 215 217 218 220 219
254 254 253 252 251 252 252 252 253 252 250 248 247 246 246 245 245 244 243 242 242 241 240 236 231 228 225 222 222 224 226 225 226 228 229 230 230 232 234 235 235 237 239 241 242 244 245 246 245 244 243 243 242 241 240 239 240 240 242 244 246 248 250 252 254 254 253 252 249 246 243 241 238 233 228 223 219 216 213 212 212 213 214 215 216 215
254 253 252 251 250 249 249 251 252 252 251 250 249 248 246 245 244 243 242 241 241 241 241 239 236 233 230 228 227 226 226 225 225 226 228 229 229 230 233 233 234 235 237 239 241 242 243 244 244 244 244 243 242 241 239 239 239 240 241 244 246 249 251 253 253 252 250 247 243 240 237 234 231 226 220 215 212 210 208 207 208 209 211 212 212 211
254 253 253 252 250 247 247 250 252 253 253 253 251 249 248 246 244 243 242 241 241 240 240 240 238 236 235 232 229 227 227 225 223 224 226 228 228 229 231 232 232 234 235 237 239 241 242 243 243 244 244 243 243 241 239 238 238 239 241 244 247 250 252 252 251 249 245 241 238 235 233 230 225 219 213 208 205 204 204 204 205 206 207 208 208 207
253 254 254 252 250 248 249 251 253 255 255 254 251 249 248 246 244 243 242 241 240 240 240 239 238 237 236 235 233 231 230 228 226 225 226 225 225 226 229 230 231 233 235 237 238 239 240 241 243 243 244 244 243 241 239 237 237 238 241 244 247 250 251 250 248 244 240 236 233 231 228 225 220 214 207 202 199 199 199 200 201 202 203 204 203 203
253 254 254 252 251 251 251 252 254 255 255 255 253 252 252 250 248 247 245 244 243 242 242 240 239 238 236 235 233 231 230 229 229 228 226 224 224 225 227 228 229 231 234 236 237 238 239 240 242 243 244 244 243 241 238 237 237 238 241 245 248 250 250 248 244 239 235 232 229 226 224 220 216 209 202 197 194 194 195 197 198 199 200 200 200 199
250 252 252 252 252 252 252 252 253 254 254 254 254 255 255 254 254 252 250 248 246 245 243 242 240 237 234 232 230 229 227 227 226 226 225 225 226 227 227 227 227 229 232 235 236 237 238 239 241 242 243 243 242 240 238 236 237 238 242 245 248 249 248 244 240 235 231 228 225 222 218 215 211 205 199 192 189 190 192 194 195 196 196 196 196 196
248 249 250 251 251 251 251 251 251 252 252 252 253 253 252 252 251 250 248 247 245 243 242 240 237 234 231 230 228 226 226 225 224 223 223 225 226 227 227 227 227 228 230 233 234 235 236 238 240 241 242 242 241 239 237 236 237 239 242 245 248 248 245 241 235 230 227 224 221 218 213 209 206 202 196 190 187 187 189 191 193 193 193 193 192 192
247 248 249 249 250 250 250 249 249 249 250 250 250 250 248 246 245 244 243 241 240 239 237 235 234 232 231 229 227 226 225 224 224 223 223 224 226 227 226 227 227 227 229 231 232 233 235 237 238 239 240 240 239 237 236 236 237 239 242 245 247 246 243 237 231 226 223 221 218 214 208 204 201 199 194 188 185 186 188 190 191 192 191 190 189 189
246 246 246 247 247 247 246 245 245 245 245 247 247 247 245 242 240 239 239 237 236 235 234 232 231 231 230 228 227 226 226 224 224 223 224 225 226 227 227 226 226 226 227 229 230 231 233 235 237 238 238 238 237 235 234 235 236 239 242 244 245 243 240 234 228 223 220 218 215 210 204 200 198 196 192 187 184 185 187 189 190 190 189 188 187 187
245 245 244 244 243 243 242 241 240 240 240 242 243 243 242 239 237 236 236 235 234 233 233 231 231 230 228 227 227 227 226 225 224 224 224 225 226 227 228 227 226 226 226 226 228 230 231 233 234 235 235 235 234 233 233 233 235 238 240 242 242 240 237 231 225 220 217 215 212 208 202 198 196 194 190 187 185 186 188 189 190 190 188 187 186 186
246 245 244 243 241 239 238 237 237 237 237 237 238 239 240 238 237 236 236 235 234 233 232 231 231 230 229 228 228 227 226 225 225 225 224 223 224 226 228 227 226 225 225 224 225 227 228 230 231 232 232 232 231 231 231 231 233 235 237 238 238 236 233 228 223 218 215 212 209 205 200 197 195 193 190 187 186 187 188 189 190 189 188 186 186 185
246 244 243 241 239 237 236 236 236 236 234 233 235 236 238 238 237 237 237 236 235 233 232 231 230 230 229 228 226 224 224 224 224 224 222 221 222 224 226 225 225 225 225 223 222 222 223 226 228 228 228 228 228 228 228 229 231 233 234 234 233 232 229 226 221 215 212 209 207 203 199 197 194 192 190 188 187 188 189 190 189 189 187 186 186 186
247 243 241 239 238 237 236 237 236 233 230 230 231 234 235 236 237 237 238 237 236 234 232 231 230 230 229 227 223 222 222 222 222 222 221 220 221 224 224 223 223 224 224 223 221 219 220 222 223 224 225 225 225 225 226 227 229 230 231 230 228 227 225 223 218 213 209 206 204 201 198 196 194 191 190 189 189 189 190 190 189 188 187 187 187 188
250 245 240 238 237 237 237 236 234 230 227 227 229 231 232 233 234 235 236 236 235 234 233 232 232 231 231 230 227 226 226 225 223 222 220 219 221 223 223 223 222 222 222 223 223 222 221 220 220 221 222 222 222 223 224 226 227 228 227 226 224 222 221 219 215 210 206 203 201 199 197 195 193 191 190 190 190 191 191 190 189 188 188 188 188 189
250 244 239 237 236 238 238 235 231 226 224 225 227 228 229 229 231 232 234 234 234 233 233 233 233 233 234 233 233 233 233 231 228 224 221 219 220 221 222 221 221 220 220 220 221 223 224 223 222 221 220 220 220 221 222 224 225 225 224 222 219 218 217 216 212 207 204 201 199 197 196 194 192 191 190 191 191 192 192 191 190 190 190 190 190 191
246 241 237 235 236 238 238 235 229 225 224 225 226 227 227 226 227 229 231 232 233 233 233 234 234 234 234 234 234 234 234 234 231 227 224 221 220 220 220 219 219 218 217 217 217 219 221 223 223 222 220 219 219 220 221 223 223 223 221 218 215 214 213 212 209 205 201 199 197 196 195 194 192 192 192 192 193 193 193 192 192 192 192 193 193 193
242 237 235 234 236 237 238 235 231 227 226 226 226 226 226 225 226 227 229 231 232 233 234 235 236 235 235 234 233 233 232 232 230 227 225 223 222 221 220 218 217 216 215 215 215 215 217 219 220 221 220 218 218 218 220 221 221 220 217 214 211 210 210 208 206 203 200 198 197 195 195 194 193 193 193 194 194 195 194 194 194 194 195 195 196 197
238 234 233 234 235 237 237 235 232 229 227 226 226 226 225 225 226 227 228 230 232 234 235 235 235 235 234 234 235 235 234 232 229 227 225 224 223 221 220 218 217 215 214 214 214 214 215 216 216 217 217 217 217 217 218 218 218 216 213 210 208 207 206 205 203 201 200 199 197 196 195 195 195 196 196 196 196 196 196 196 196 197 198 199 199 201
236 234 233 234 235 237 237 235 231 229 227 226 225 225 225 225 226 227 229 231 233 234 234 233 232 230 230 230 231 233 235 234 232 228 225 223 222 221 220 219 218 216 215 214 214 213 214 214 214 214 214 215 216 216 216 215 214 212 209 206 204 204 203 201 199 198 198 198 197 196 195 196 197 198 199 199 199 199 199 199 199 200 201 202 203 204
236 234 234 235 236 237 236 233 230 228 226 225 225 224 224 225 226 227 229 231 232 233 231 230 227 225 224 223 223 224 227 230 230 229 225 222 220 220 220 219 218 217 217 216 215 215 214 213 212 212 212 212 214 215 215 213 211 208 205 203 202 201 200 198 196 195 195 196 196 196 196 197 199 200 201 202 201 201 201 202 203 204 205 206 207 208
236 235 235 236 237 236 235 232 229 227 226 225 224 224 224 224 225 227 228 229 230 229 227 225 223 221 219 218 217 216 217 219 221 222 221 219 217 217 217 217 217 216 216 216 217 217 217 217 216 215 213 211 210 211 212 212 210 206 203 200 200 199 198 196 195 194 194 194 194 195 196 198 200 201 202 202 202 203 203 205 206 207 208 210 210 211
235 235 236 237 237 235 233 230 227 226 225 224 223 223 223 224 225 225 226 226 225 223 221 219 218 216 215 214 213 211 210 210 210 210 211 211 211 212 213 213 214 213 213 213 214 215 217 219 221 221 219 215 211 208 207 208 207 204 201 199 198 198 196 195 194 194 194 194 194 195 196 198 200 201 202 203 203 204 206 207 209 210 210 211 212 213
234 235 236 236 236 234 231 228 227 225 224 223 223 223 223 223 223 222 221 220 218 216 215 214 213 212 212 211 210 209 207 205 203 202 201 202 203 204 206 207 208 209 209 209 210 212 214 217 219 219 219 217 214 210 207 205 203 202 201 199 198 196 195 194 193 193 194 194 195 196 197 198 200 201 202 203 204 206 208 210 211 211 211 211 213 215
233 233 234 234 232 230 228 226 225 224 223 223 222 222 222 221 220 219 216 214 212 210 210 209 209 209 208 208 207 206 204 202 200 197 196 196 196 198 199 201 202 203 205 206 208 210 211 213 213 213 211 210 210 208 206 203 201 200 199 199 198 197 196 195 194 193 194 194 195 196 197 198 199 200 202 203 205 207 208 210 211 212 212 212 213 216
231 231 232 231 230 228 226 224 223 222 221 221 220 220 220 219 218 216 213 210 208 206 206 205 205 205 205 204 203 202 200 199 197 194 193 193 193 193 194 195 197 198 201 204 206 208 208 208 208 206 203 202 204 205 204 201 199 197 196 196 196 197 197 195 194 193 193 194 195 196 197 198 199 200 201 203 205 207 208 209 210 211 211 212 214 216
228 229 229 229 229 228 226 223 221 220 219 218 217 217 217 216 215 213 210 208 206 204 204 203 202 202 202 202 201 199 197 196 194 193 192 192 191 191 191 192 194 196 200 203 205 206 205 204 202 199 197 196 198 200 201 200 198 196 194 193 194 196 196 195 195 194 194 194 194 195 196 197 198 199 201 203 204 206 207 209 210 210 211 212 214 216
226 226 227 228 228 226 223 221 220 219 218 216 215 215 214 213 212 210 209 207 205 204 203 202 201 201 201 201 199 197 196 194 193 192 192 191 190 189 189 191 193 196 199 203 204 205 204 202 198 195 193 192 193 195 197 199 198 196 193 192 192 192 193 194 196 196 196 195 195 196 196 197 198 199 201 202 204 206 207 209 210 211 213 214 216 218
224 225 226 227 227 225 224 222 220 218 217 215 214 213 212 211 210 209 208 207 205 204 203 202 201 201 201 200 198 197 196 194 193 192 192 191 190 189 189 189 191 195 198 201 202 203 203 202 199 195 192 191 191 192 193 195 197 196 194 192 191 190 190 192 194 195 195 196 196 197 197 197 198 199 200 201 203 205 207 209 211 213 215 217 219 222
223 225 226 226 226 225 224 223 221 218 216 214 213 212 211 210 209 209 208 207 206 205 204 203 203 203 202 201 199 198 197 195 194 193 191 190 189 188 188 189 190 193 196 198 198 198 198 199 199 198 196 193 191 191 191 192 194 195 195 194 193 192 192 192 193 194 195 196 197 198 198 199 199 199 199 201 203 205 207 209 212 214 217 220 223 226
223 224 225 225 225 224 224 223 221 218 216 214 213 211 210 210 209 209 208 207 206 206 204 204 203 204 204 203 202 201 200 198 196 194 192 190 188 187 188 188 190 192 193 194 194 194 193 193 195 197 198 197 195 192 191 192 192 193 195 195 196 196 195 195 195 195 196 197 198 199 200 200 200 200 200 201 203 205 208 211 214 217 220 224 227 230
223 224 224 224 224 223 223 223 221 219 217 216 213 211 210 209 209 209 207 206 205 205 205 205 204 204 204 204 204 204 203 201 199 196 193 191 189 188 187 188 189 190 191 192 192 192 191 191 191 192 194 196 197 196 194 193 193 193 194 196 197 198 198 198 198 198 199 199 200 201 201 201 201 202 203 203 204 206 210 213 217 221 225 228 231 234
221 223 223 223 223 223 224 224 223 221 219 217 215 212 209 208 207 207 207 206 205 205 206 207 206 206 205 204 204 204 203 202 200 198 196 193 191 189 188 188 188 188 188 189 189 190 190 191 191 191 190 190 192 194 195 195 195 195 195 196 197 198 199 199 199 199 200 201 202 202 202 202 203 204 205 205 207 209 213 217 221 225 229 232 234 236
219 221 221 222 223 225 226 226 224 222 221 219 216 212 209 206 205 205 205 205 205 205 206 208 209 208 207 206 205 205 204 203 201 198 196 194 193 191 190 189 188 187 186 186 186 186 187 189 191 192 192 191 189 190 192 194 195 195 196 197 197 197 198 198 199 200 200 201 202 202 203 203 204 205 206 208 209 212 216 221 225 229 232 234 236 237
Height
1472 1473 1474 1475 1475 1475 1476 1476 1477 1477 1477 1478 1478 1478 1478 1478 1479 1479 1479 1479 1480 1480 1481 1481 1481 1481 1481 1481 1481 1481 1481 1482 1482 1483 1483 1484 1485 1485 1485 1486 1486 1486 1487 1487 1487 1487 1487 1488 1488 1488 1488 1488 1488 1489 1489 1489 1490 1490 1491 1491 1492 1492 1493 1493 1493 1493 1493 1493 1493 1494 1494 1495 1495 1496 1496 1496 1497 1497 1497 1497 1498 1498 1498 1498 1498 1498
1469 1470 1470 1471 1472 1472 1473 1473 1474 1474 1474 1475 1475 1476 1476 1476 1476 1476 1476 1477 1477 1478 1478 1479 1479 1480 1480 1479 1479 1480 1480 1480 1481 1481 1482 1482 1483 1483 1483 1484 1484 1485 1485 1485 1485 1486 1486 1486 1486 1486 1486 1487 1487 1487 1488 1488 1488 1489 1489 1490 1490 1491 1491 1492 1492 1491 1491 1491 1492 1492 1493 1494 1495 1495 1495 1496 1496 1496 1496 1496 1496 1497 1497 1497 1497 1497
1467 1468 1468 1469 1469 1469 1470 1470 1471 1471 1471 1472 1473 1473 1473 1473 1473 1474 1474 1474 1475 1475 1476 1477 1477 1477 1477 1477 1478 1478 1478 1479 1479 1480 1480 1480 1481 1481 1482 1482 1482 1483 1483 1483 1484 1484 1485 1485 1485 1485 1485 1485 1485 1486 1486 1486 1487 1487 1488 1488 1489 1489 1490 1490 1490 1489 1489 1489 1490 1491 1492 1493 1494 1495 1495 1495 1495 1495 1495 1495 1495 1496 1496 1496 1496 1496
1465 1465 1465 1466 1466 1467 1467 1468 1468 1469 1469 1470 1470 1470 1470 1470 1470 1471 1471 1472 1473 1473 1474 1474 1475 1475 1475 1475 1476 1476 1476 1477 1477 1478 1478 1479 1479 1480 1480 1480 1481 1481 1481 1482 1482 1483 1483 1483 1483 1483 1484 1484 1484 1484 1485 1485 1485 1486 1486 1486 1487 1487 1487 1487 1487 1487 1487 1488 1489 1490 1491 1492 1493 1493 1494 1494 1494 1494 1494 1494 1495 1495 1495 1495 1495 1495
1463 1463 1463 1464 1464 1464 1465 1465 1465 1466 1466 1467 1467 1468 1468 1468 1468 1468 1469 1470 1470 1470 1471 1472 1472 1473 1473 1473 1474 1474 1475 1475 1475 1476 1476 1477 1478 1478 1478 1479 1479 1480 1480 1480 1480 1481 1481 1481 1482 1482 1482 1482 1483 1483 1483 1484 1484 1485 1485 1485 1485 1485 1486 1486 1486 1486 1486 1487 1488 1489 1490 1491 1491 1492 1492 1492 1492 1492 1493 1493 1493 1494 1494 1494 1494 1494
1460 1460 1460 1461 1461 1461 1462 1462 1463 1463 1464 1464 1465 1465 1465 1465 1465 1466 1466 1467 1468 1468 1469 1470 1470 1470 1471 1471 1472 1472 1473 1474 1474 1474 1475 1475 1476 1476 1477 1477 1478 1478 1478 1479 1479 1480 1480 1480 1480 1480 1480 1481 1481 1481 1482 1482 1483 1483 1483 1484 1484 1484 1484 1485 1485 1485 1485 1486 1487 1488 1489 1490 1490 1490 1490 1490 1491 1491 1491 1492 1492 1492 1492 1493 1493 1493
1458 1458 1458 1458 1458 1459 1459 1459 1460 1460 1461 1461 1462 1462 1462 1463 1463 1464 1464 1465 1465 1466 1467 1467 1468 1468 1469 1469 1470 1471 1471 1472 1472 1473 1473 1474 1474 1475 1475 1476 1476 1477 1477 1477 1478 1478 1478 1479 1479 1479 1479 1479 1480 1480 1480 1481 1481 1482 1482 1482 1482 1483 1483 1484 1484 1484 1485 1485 1486 1487 1487 1488 1488 1488 1489 1489 1489 1490 1490 1490 1490 1491 1491 1491 1492 1492
1455 1455 1455 1455 1455 1456 1456 1456 1457 1458 1458 1459 1459 1460 1460 1460 1461 1461 1462 1462 1463 1464 1465 1465 1465 1466 1466 1467 1468 1469 1469 1470 1470 1471 1472 1472 1473 1473 1474 1474 1475 1475 1475 1476 1476 1476 1477 1477 1477 1477 1478 1478 1478 1479 1479 1480 1480 1480 1480 1481 1481 1482 1482 1483 1483 1484 1484 1485 1485 1485 1486 1486 1486 1487 1487 1488 1488 1488 1489 1489 1489 1490 1490 1490 1490 1491
1453 1453 1453 1453 1453 1453 1453 1454 1454 1455 1456 1456 1457 1457 1458 1458 1458 1459 1460 1460 1461 1462 1462 1463 1463 1464 1465 1465 1466 1466 1467 1468 1468 1469 1470 1470 1471 1471 1472 1473 1473 1474 1474 1474 1475 1475 1475 1475 1476 1476 1476 1476 1477 1477 1478 1478 1478 1479 1479 1480 1480 1480 1481 1482 1482 1482 1483 1483 1484 1484 1484 1485 1485 1485 1486 1486 1486 1487 1487 1487 1488 1488 1489 1489 1489 1490
1450 1450 1450 1450 1450 1450 1451 1451 1451 1452 1453 1454 1454 1455 1455 1456 1456 1456 1457 1458 1459 1460 1460 1460 1461 1462 1463 1463 1464 1464 1465 1466 1466 1467 1468 1469 1469 1470 1470 1471 1472 1472 1473 1473 1473 1474 1474 1474 1474 1475 1475 1475 1475 1476 1476 1477 1477 1477 1478 1478 1479 1479 1480 1480 1481 1481 1481 1482 1482 1482 1483 1483 1484 1484 1484 1485 1485 1485 1485 1486 1486 1487 1487 1487 1488 1488
1447 1447 1447 1447 1447 1448 1448 1448 1449 1449 1450 1451 1452 1452 1453 1453 1454 1454 1455 1455 1456 1457 1458 1458 1459 1460 1460 1461 1462 1462 1463 1464 1465 1465 1466 1467 1467 1468 1469 1470 1470 1471 1471 1471 1472 1472 1472 1473 1473 1473 1474 1474 1474 1475 1475 1475 1475 1476 1476 1477 1477 1478 1478 1479 1479 1480 1480 1480 1481 1481 1481 1482 1482 1482 1483 1483 1483 1484 1484 1484 1485 1485 1485 1486 1486 1487
1444 1444 1445 1445 1445 1445 1445 1446 1446 1447 1448 1449 1449 1449 1450 1450 1451 1451 1452 1453 1454 1455 1455 1456 1457 1458 1458 1459 1459 1460 1461 1462 1462 1463 1464 1465 1465 1466 1467 1468 1468 1469 1469 1470 1470 1470 1471 1471 1472 1472 1472 1473 1473 1473 1474 1474 1474 1475 1475 1475 1476 1476 1477 1477 1478 1478 1479 1479 1479 1480 1480 1480 1480 1481 1481 1481 1482 1482 1482 1483 1483 1483 1484 1484 1485 1485
1441 1441 1442 1441 1442 1442 1442 1443 1443 1444 1445 1445 1445 1445 1445 1447 1448 1450 1451 1452 1452 1453 1454 1454 1455 1455 1456 1456 1457 1458 1459 1460 1460 1461 1462 1463 1463 1464 1465 1465 1466 1467 1467 1468 1468 1469 1470 1470 1470 1471 1471 1471 1472 1472 1472 1472 1473 1473 1473 1474 1474 1475 1475 1476 1476 1477 1477 1478 1478 1478 1478 1479 1479 1479 1479 1480 1480 1480 1480 1481 1481 1482 1482 1483 1483 1484
1438 1439 1439 1439 1439 1439 1439 1440 1440 1440 1441 1441 1441 1442 1443 1445 1446 1448 1449 1450 1451 1451 1452 1452 1453 1453 1454 1454 1455 1455 1456 1457 1458 1459 1460 1460 1461 1461 1462 1463 1464 1465 1465 1466 1467 1467 1468 1469 1469 1470 1470 1470 1470 1470 1471 1471 1471 1472 1472 1472 1473 1474 1474 1475 1475 1475 1476 1476 1476 1477 1477 1477 1477 1477 1477 1478 1478 1479 1479 1479 1480 1480 1480 1481 1481 1482
1435 1436 1436 1435 1435 1435 1435 1436 1437 1437 1437 1439 1440 1441 1442 1443 1445 1446 1447 1448 1449 1449 1450 1450 1451 1451 1452 1452 1452 1453 1454 1455 1456 1457 1457 1458 1459 1459 1460 1461 1462 1463 1464 1464 1465 1466 1466 1467 1468 1468 1469 1469 1469 1469 1469 1470 1470 1470 1471 1471 1472 1472 1473 1473 1474 1474 1474 1475 1475 1475 1475 1475 1475 1475 1476 1476 1476 1477 1477 1478 1478 1479 1479 1480 1480 1481
1432 1433 1433 1432 1432 1432 1432 1433 1434 1435 1435 1437 1438 1439 1440 1441 1442 1444 1445 1445 1446 1447 1448 1448 1449 1449 1449 1449 1450 1450 1451 1452 1453 1454 1455 1456 1457 1457 1458 1459 1460 1461 1462 1463 1464 1464 1465 1466 1466 1467 1467 1468 1468 1468 1468 1468 1469 1469 1470 1470 1470 1471 1471 1472 1472 1473 1473 1473 1473 1473 1473 1473 1474 1474 1474 1475 1475 1475 1476 1476 1477 1477 1478 1478 1479 1480
1430 1430 1429 1429 1430 1430 1430 1430 1431 1432 1434 1435 1436 1436 1437 1438 1440 1441 1442 1443 1444 1445 1445 1445 1446 1446 1446 1447 1447 1448 1448 1450 1451 1452 1453 1454 1455 1455 1456 1457 1458 1459 1460 1461 1462 1463 1463 1464 1465 1466 1466 1466 1466 1466 1467 1467 1467 1468 1468 1469 1469 1470 1470 1470 1471 1471 1471 1471 1471 1472 1472 1472 1472 1472 1473 1473 1474 1474 1475 1475 1475 1476 1476 1477 1478 1479
1427 1426 1426 1427 1427 1427 1427 1428 1429 1430 1431 1432 1433 1434 1435 1436 1437 1439 1440 1441 1441 1442 1442 1442 1442 1442 1442 1443 1444 1444 1445 1447 1449 1450 1451 1452 1453 1453 1454 1455 1457 1458 1458 1459 1460 1461 1462 1463 1464 1464 1465 1465 1465 1465 1465 1466 1466 1466 1467 1467 1468 1468 1469 1469 1470 1470 1470 1470 1470 1470 1470 1470 1471 1471 1471 1472 1472 1473 1473 1474 1474 1475 1475 1476 1477 1478
1424 1424 1424 1424 1424 1425 1425 1425 1426 1427 1428 1429 1430 1432 1433 1434 1435 1436 1437 1438 1439 1439 1439 1439 1439 1439 1439 1439 1440 1441 1443 1445 1446 1448 1449 1450 1451 1451 1452 1454 1455 1456 1457 1457 1458 1459 1460 1461 1462 1463 1463 1463 1464 1464 1464 1465 1465 1465 1466 1466 1466 1467 1467 1468 1468 1468 1468 1468 1469 1469 1469 1469 1470 1470 1470 1471 1471 1472 1472 1473 1473 1474 1475 1475 1476 1477
1421 1420 1421 1421 1422 1423 1423 1423 1423 1424 1425 1426 1428 1430 1430 1431 1432 1433 1434 1435 1436 1436 1437 1437 1437 1437 1437 1437 1438 1440 1441 1443 1444 1445 1446 1447 1448 1449 1450 1451 1453 1454 1455 1455 1456 1457 1458 1459 1460 1461 1461 1462 1462 1463 1463 1463 1464 1464 1464 1465 1465 1465 1466 1466 1466 1467 1467 1467 1467 1467 1468 1468 1469 1469 1470 1470 1470 1470 1471 1472 1472 1473 1474 1475 1476 1477
1418 1417 1418 1419 1420 1420 1420 1420 1420 1421 1423 1425 1426 1427 1428 1429 1430 1430 1431 1432 1433 1434 1434 1435 1435 1435 1435 1436 1437 1438 1439 1440 1442 1443 1444 1445 1446 1447 1448 1449 1450 1452 1453 1453 1454 1455 1456 1457 1458 1459 1460 1460 1460 1461 1461 1462 1462 1463 1463 1463 1464 1464 1465 1465 1465 1465 1465 1466 1466 1466 1467 1467 1468 1468 1469 1469 1469 1470 1470 1471 1472 1472 1473 1474 1475 1476
1415 1414 1415 1416 1417 1417 1418 1418 1419 1420 1421 1422 1423 1424 1425 1425 1426 1427 1428 1429 1430 1431 1431 1432 1433 1433 1434 1435 1435 1437 1437 1438 1439 1440 1442 1443 1444 1445 1445 1447 1448 1450 1450 1451 1452 1453 1455 1455 1456 1457 1458 1459 1459 1460 1460 1460 1461 1461 1462 1462 1462 1463 1463 1463 1464 1464 1464 1465 1465 1465 1466 1466 1467 1467 1467 1468 1468 1469 1470 1470 1471 1472 1473 1474 1475 1475
1411 1411 1412 1414 1415 1415 1415 1417 1417 1418 1418 1420 1420 1421 1421 1423 1424 1425 1426 1427 1428 1429 1429 1430 1431 1432 1433 1433 1434 1435 1436 1437 1438 1439 1440 1440 1441 1442 1443 1445 1446 1448 1448 1449 1450 1451 1453 1454 1455 1455 1456 1457 1457 1458 1459 1459 1460 1460 1460 1461 1461 1461 1462 1462 1462 1463 1463 1464 1464 1465 1465 1466 1466 1466 1467 1467 1467 1468 1469 1470 1470 1471 1472 1473 1474 1475
1409 1409 1410 1411 1412 1413 1414 1415 1415 1415 1416 1416 1417 1419 1420 1421 1422 1423 1425 1425 1426 1427 1427 1428 1429 1430 1430 1431 1432 1433 1434 1435 1436 1437 1438 1438 1439 1440 1441 1443 1444 1445 1446 1447 1449 1450 1451 1452 1453 1454 1455 1455 1456 1457 1457 1458 1458 1459 1459 1460 1460 1460 1460 1461 1461 1462 1462 1463 1463 1464 1464 1465 1465 1466 1466 1466 1466 1467 1468 1469 1470 1471 1472 1472 1473 1474
1406 1407 1407 1408 1409 1410 1411 1412 1413 1413 1413 1414 1415 1417 1418 1420 1421 1422 1423 1424 1424 1425 1425 1426 1427 1428 1428 1428 1429 1430 1431 1432 1433 1434 1435 1436 1437 1438 1439 1440 1442 1443 1444 1446 1447 1448 1449 1450 1451 1452 1453 1454 1455 1455 1456 1456 1457 1457 1458 1458 1459 1459 1459 1460 1460 1460 1461 1462 1462 1463 1463 1464 1465 1465 1465 1465 1466 1467 1468 1469 1470 1470 1471 1472 1472 1473
1404 1404 1405 1406 1407 1408 1409 1410 1411 1411 1411 1412 1414 1415 1416 1418 1419 1420 1420 1420 1421 1421 1423 1424 1424 1424 1425 1425 1426 1427 1428 1429 1430 1432 1433 1434 1435 1436 1438 1439 1440 1442 1443 1444 1445 1446 1448 1449 1449 1450 1451 1452 1453 1454 1455 1455 1455 1456 1457 1457 1458 1458 1458 1459 1459 1460 1460 1461 1461 1462 1462 1463 1464 1464 1464 1465 1465 1466 1467 1468 1469 1470 1470 1471 1472 1472
1401 1402 1403 1404 1405 1405 1407 1408 1409 1410 1410 1411 1412 1413 1414 1415 1416 1417 1417 1417 1417 1418 1420 1420 1421 1421 1422 1423 1424 1424 1425 1427 1428 1429 1430 1431 1433 1434 1435 1437 1439 1440 1441 1443 1444 1445 1446 1447 1448 1449 1450 1450 1451 1452 1453 1454 1454 1455 1455 1456 1456 1457 1457 1457 1458 1459 1459 1460 1460 1461 1461 1462 1463 1463 1464 1464 1465 1465 1467 1467 1468 1469 1470 1470 1471 1472
1399 1399 1400 1400 1401 1403 1404 1405 1406 1407 1408 1409 1410 1410 1411 1412 1413 1413 1412 1413 1415 1416 1417 1418 1418 1419 1419 1420 1421 1422 1424 1425 1426 1427 1428 1430 1431 1432 1433 1435 1437 1438 1440 1441 1442 1443 1444 1445 1446 1447 1448 1449 1450 1451 1451 1452 1453 1454 1454 1455 1455 1455 1456 1456 1457 1458 1458 1459 1460 1460 1460 1461 1462 1463 1463 1464 1464 1465 1466 1467 1468 1468 1469 1470 1470 1471
1395 1396 1396 1397 1398 1400 1401 1402 1403 1404 1405 1406 1407 1408 1408 1409 1409 1409 1410 1411 1413 1414 1415 1415 1416 1416 1417 1418 1419 1420 1422 1423 1423 1424 1426 1428 1429 1430 1431 1433 1435 1436 1438 1439 1440 1441 1442 1443 1444 1445 1446 1447 1448 1449 1450 1450 1451 1452 1453 1453 1454 1454 1455 1455 1456 1457 1457 1458 1459 1459 1460 1461 1461 1462 1463 1463 1464 1465 1465 1466 1467 1468 1468 1469 1470 1470
1392 1393 1393 1394 1395 1396 1398 1399 1400 1401 1402 1403 1404 1405 1405 1405 1406 1407 1408 1410 1411 1412 1412 1413 1414 1414 1415 1416 1418 1419 1419 1419 1420 1422 1424 1426 1426 1427 1429 1431 1432 1434 1435 1437 1438 1440 1440 1441 1442 1443 1444 1445 1446 1447 1448 1449 1450 1451 1451 1452 1453 1453 1454 1454 1455 1456 1456 1457 1458 1459 1459 1460 1461 1461 1462 1462 1463 1464 1465 1466 1466 1467 1468 1469 1469 1470
1389 1390 1390 1390 1392 1393 1395 1395 1396 1398 1399 1400 1401 1402 1402 1403 1404 1405 1406 1407 1408 1409 1410 1411 1411 1412 1412 1414 1415 1415 1415 1415 1417 1419 1421 1423 1424 1424 1426 1428 1430 1431 1432 1434 1435 1436 1437 1438 1440 1441 1442 1443 1445 1445 1447 1448 1449 1449 1450 1451 1451 1452 1453 1453 1454 1455 1455 1456 1457 1458 1459 1459 1460 1460 1461 1462 1463 1464 1464 1465 1466 1467 1467 1468 1469 1469
1386 1387 1387 1388 1389 1390 1391 1392 1393 1394 1395 1397 1398 1399 1400 1400 1401 1402 1403 1404 1405 1407 1408 1409 1409 1409 1410 1411 1411 1411 1411 1413 1415 1417 1419 1421 1421 1422 1424 1425 1427 1429 1430 1432 1433 1434 1434 1436 1437 1439 1440 1441 1443 1444 1445 1446 1447 1448 1449 1449 1450 1451 1451 1452 1453 1454 1455 1455 1456 1457 1458 1459 1459 1460 1460 1461 1462 1463 1464 1465 1465 1466 1467 1467 1468 1469
1384 1385 1385 1386 1387 1388 1389 1390 1390 1391 1392 1394 1395 1395 1396 1397 1399 1400 1400 1402 1403 1405 1406 1406 1407 1407 1408 1409 1410 1410 1410 1412 1414 1415 1417 1418 1419 1420 1422 1424 1425 1427 1429 1430 1431 1432 1433 1434 1436 1437 1439 1440 1441 1442 1444 1445 1445 1446 1447 1448 1449 1450 1450 1451 1452 1453 1454 1455 1455 1456 1457 1458 1458 1459 1460 1460 1461 1462 1463 1464 1465 1465 1466 1467 1467 1468
1382 1383 1384 1384 1385 1385 1386 1387 1388 1389 1390 1390 1391 1392 1394 1395 1396 1397 1399 1400 1401 1403 1404 1404 1405 1405 1406 1407 1408 1409 1409 1410 1412 1414 1415 1416 1417 1418 1420 1421 1423 1425 1426 1428 1429 1430 1432 1433 1434 1436 1437 1438 1440 1441 1442 1443 1444 1445 1446 1447 1448 1449 1449 1450 1451 1452 1453 1454 1455 1455 1456 1456 1457 1458 1459 1460 1461 1462 1462 1463 1464 1465 1465 1466 1467 1468
1380 1381 1382 1382 1382 1383 1384 1384 1385 1386 1387 1388 1389 1390 1391 1392 1394 1395 1396 1398 1399 1400 1401 1402 1403 1404 1405 1405 1406 1406 1407 1409 1410 1412 1413 1414 1415 1416 1418 1420 1421 1423 1424 1425 1427 1428 1430 1431 1433 1434 1436 1437 1438 1439 1440 1441 1443 1444 1445 1445 1446 1447 1448 1449 1450 1451 1452 1453 1453 1454 1455 1455 1456 1457 1458 1459 1460 1461 1462 1462 1463 1464 1465 1465 1466 1467
1378 1379 1379 1379 1380 1380 1381 1382 1383 1384 1384 1385 1386 1387 1389 1390 1392 1393 1395 1396 1397 1399 1400 1400 1401 1402 1403 1404 1405 1405 1406 1408 1409 1410 1411 1412 1413 1415 1416 1418 1419 1421 1422 1424 1425 1426 1428 1430 1431 1433 1434 1435 1436 1437 1438 1440 1441 1442 1443 1444 1445 1446 1447 1448 1449 1450 1451 1452 1453 1453 1454 1455 1456 1456 1457 1458 1459 1460 1461 1462 1463 1463 1464 1465 1466 1466
1375 1376 1376 1376 1377 1378 1379 1380 1380 1381 1381 1382 1383 1385 1386 1388 1390 1391 1393 1394 1395 1397 1398 1399 1400 1400 1401 1403 1404 1405 1406 1407 1408 1409 1410 1411 1412 1414 1415 1416 1418 1420 1421 1422 1423 1425 1426 1428 1430 1431 1432 1434 1435 1435 1436 1438 1439 1440 1442 1443 1444 1445 1446 1447 1448 1449 1450 1451 1452 1453 1453 1454 1455 1456 1457 1458 1459 1459 1460 1461 1462 1463 1463 1464 1465 1466
1372 1373 1373 1374 1374 1375 1376 1377 1378 1378 1379 1380 1381 1383 1384 1386 1387 1389 1391 1392 1394 1395 1396 1397 1398 1399 1400 1401 1402 1403 1404 1405 1406 1407 1408 1409 1411 1412 1413 1415 1416 1418 1420 1421 1422 1423 1425 1426 1428 1429 1430 1431 1433 1434 1435 1436 1438 1439 1440 1441 1443 1444 1445 1446 1447 1448 1449 1450 1451 1452 1453 1453 1454 1455 1456 1457 1458 1459 1459 1460 1461 1462 1463 1464 1464 1465
1369 1370 1370 1371 1372 1373 1374 1375 1375 1376 1377 1378 1379 1380 1382 1384 1385 1387 1389 1390 1392 1393 1394 1395 1396 1397 1398 1399 1400 1401 1402 1403 1404 1405 1406 1408 1409 1410 1412 1413 1415 1417 1418 1420 1421 1423 1424 1425 1426 1427 1428 1430 1431 1433 1434 1435 1436 1438 1439 1440 1441 1442 1444 1445 1446 1447 1448 1449 1450 1450 1451 1452 1453 1454 1455 1456 1457 1458 1459 1459 1460 1461 1462 1463 1463 1464
1365 1366 1367 1368 1369 1370 1371 1372 1373 1374 1375 1376 1377 1379 1380 1382 1384 1385 1387 1388 1390 1391 1392 1393 1394 1395 1396 1398 1399 1400 1400 1401 1402 1403 1404 1405 1407 1409 1410 1412 1414 1415 1417 1419 1420 1421 1423 1424 1425 1427 1428 1429 1430 1431 1432 1434 1435 1437 1438 1439 1440 1441 1442 1444 1445 1446 1447 1448 1449 1450 1450 1451 1452 1453 1454 1455 1456 1457 1458 1459 1459 1460 1461 1462 1462 1463
1362 1363 1365 1365 1367 1368 1370 1370 1371 1372 1373 1374 1375 1377 1378 1380 1381 1383 1385 1386 1387 1389 1390 1391 1393 1394 1395 1396 1397 1398 1399 1400 1401 1402 1403 1404 1405 1407 1409 1410 1412 1414 1416 1417 1419 1420 1421 1423 1424 1426 1427 1429 1430 1430 1431 1433 1434 1435 1437 1438 1439 1440 1441 1443 1444 1445 1446 1447 1448 1449 1450 1451 1452 1453 1454 1455 1455 1456 1457 1458 1458 1459 1460 1461 1461 1462
1360 1361 1362 1363 1365 1366 1367 1368 1369 1370 1371 1373 1374 1375 1376 1378 1379 1381 1382 1384 1385 1387 1388 1390 1391 1392 1394 1395 1396 1397 1398 1399 1400 1400 1402 1403 1404 1406 1407 1409 1411 1413 1415 1416 1418 1419 1420 1421 1423 1424 1425 1427 1428 1430 1430 1432 1433 1435 1436 1437 1439 1440 1441 1442 1443 1444 1445 1446 1447 1448 1449 1450 1451 1452 1453 1454 1455 1455 1456 1457 1458 1458 1459 1460 1461 1461
1358 1359 1360 1361 1362 1364 1365 1366 1367 1368 1370 1371 1372 1373 1375 1376 1377 1379 1380 1382 1383 1385 1386 1388 1389 1390 1392 1393 1394 1395 1396 1397 1399 1400 1401 1402 1403 1405 1406 1408 1410 1411 1413 1415 1416 1417 1419 1420 1421 1423 1424 1425 1427 1428 1430 1431 1432 1434 1435 1436 1438 1439 1440 1440 1442 1443 1444 1445 1446 1447 1448 1449 1450 1451 1452 1453 1454 1455 1455 1456 1457 1458 1459 1459 1460 1460
1356 1357 1358 1359 1360 1362 1364 1365 1366 1367 1368 1369 1370 1372 1373 1375 1376 1378 1379 1380 1382 1384 1385 1386 1388 1389 1390 1391 1393 1394 1395 1396 1397 1399 1400 1401 1402 1404 1405 1407 1409 1410 1412 1413 1415 1416 1417 1419 1420 1422 1423 1425 1426 1427 1429 1430 1431 1432 1434 1435 1436 1438 1439 1440 1441 1442 1443 1444 1445 1446 1447 1448 1449 1450 1451 1452 1453 1454 1455 1455 1456 1457 1458 1458 1459 1460
1354 1355 1356 1357 1359 1360 1362 1364 1365 1366 1367 1368 1369 1370 1372 1373 1375 1376 1378 1379 1381 1382 1384 1385 1386 1388 1389 1390 1391 1392 1394 1395 1396 1397 1398 1400 1401 1403 1404 1406 1408 1409 1411 1412 1414 1415 1416 1418 1419 1420 1422 1423 1425 1426 1428 1429 1430 1432 1433 1434 1436 1437 1439 1440 1441 1442 1443 1444 1445 1445 1447 1448 1449 1450 1450 1451 1452 1453 1454 1455 1455 1456 1457 1457 1458 1459
1352 1353 1354 1355 1357 1359 1360 1362 1364 1365 1366 1367 1368 1369 1370 1372 1374 1375 1376 1378 1380 1381 1383 1384 1385 1386 1387 1388 1390 1391 1392 1393 1395 1395 1397 1398 1400 1401 1403 1405 1406 1408 1410 1411 1412 1414 1415 1417 1419 1420 1421 1422 1424 1425 1426 1428 1430 1431 1432 1434 1435 1436 1438 1439 1440 1441 1442 1443 1444 1445 1446 1447 1448 1449 1450 1450 1451 1452 1453 1454 1455 1455 1456 1456 1457 1458
1349 1350 1352 1354 1355 1357 1360 1361 1363 1364 1365 1366 1367 1368 1370 1371 1372 1374 1375 1377 1379 1380 1382 1383 1385 1385 1386 1387 1389 1390 1391 1392 1393 1394 1395 1397 1398 1400 1401 1403 1405 1407 1408 1410 1411 1413 1415 1416 1418 1420 1420 1421 1423 1424 1425 1427 1429 1430 1431 1433 1434 1435 1436 1437 1439 1440 1441 1442 1443 1444 1445 1446 1447 1448 1449 1450 1450 1451 1452 1453 1454 1454 1455 1455 1456 1457
1347 1348 1350 1352 1354 1356 1358 1360 1362 1363 1364 1365 1366 1367 1369 1370 1371 1373 1374 1376 1378 1380 1381 1382 1383 1384 1385 1387 1388 1389 1390 1390 1392 1393 1394 1395 1397 1398 1400 1401 1403 1405 1407 1409 1410 1412 1413 1415 1417 1418 1420 1421 1422 1424 1425 1426 1427 1429 1430 1432 1433 1435 1435 1437 1438 1439 1440 1441 1442 1443 1444 1445 1446 1447 1448 1449 1450 1450 1451 1452 1452 1453 1454 1455 1455 1456
1345 1347 1349 1350 1352 1355 1357 1359 1360 1362 1363 1364 1365 1366 1368 1369 1370 1372 1373 1375 1376 1378 1380 1380 1382 1383 1384 1386 1387 1388 1389 1390 1391 1392 1393 1394 1395 1397 1398 1400 1402 1404 1405 1407 1409 1411 1412 1414 1415 1417 1419 1420 1422 1424 1425 1426 1427 1428 1430 1431 1432 1434 1435 1436 1437 1438 1439 1440 1441 1442 1443 1444 1445 1446 1447 1448 1448 1449 1450 1451 1451 1452 1453 1453 1454 1455
1344 1345 1347 1349 1351 1353 1355 1357 1359 1360 1362 1363 1364 1365 1366 1368 1369 1371 1372 1374 1376 1377 1378 1380 1380 1382 1383 1384 1385 1387 1388 1389 1390 1391 1392 1393 1395 1396 1397 1399 1400 1402 1404 1406 1408 1410 1412 1413 1415 1416 1417 1419 1421 1423 1424 1425 1426 1427 1429 1430 1431 1432 1434 1435 1436 1437 1438 1439 1440 1441 1442 1443 1444 1445 1446 1446 1447 1448 1449 1450 1450 1451 1451 1452 1453 1453
1343 1345 1346 1348 1350 1352 1354 1355 1357 1359 1360 1361 1363 1364 1365 1366 1368 1370 1371 1373 1375 1376 1377 1379 1380 1381 1382 1383 1385 1385 1386 1388 1389 1390 1391 1392 1394 1395 1396 1397 1399 1401 1403 1405 1407 1409 1410 1412 1414 1415 1417 1418 1419 1421 1422 1424 1425 1426 1427 1429 1430 1431 1432 1434 1435 1436 1437 1438 1439 1440 1441 1442 1443 1444 1445 1445 1446 1447 1448 1449 1449 1450 1450 1451 1451 1452